| time (UTC) | temp F | wind direction | speed knots | gust knots | rain 1hr in | rain 24hr in | rain mn in | humidity % | barometer mb |
| 20260510164313 | 79 | 35 | 0.0 | 0.9 | 0.00 | 0.00 | 0.00 | 64 | 1014.1 |
| 20260510163812 | 79 | 1 | 3.5 | 3.5 | 0.00 | 0.00 | 0.00 | 67 | 1014.0 |
| 20260510163309 | 80 | 226 | 5.2 | 7.0 | 0.00 | 0.00 | 0.00 | 62 | 1014.3 |
| 20260510162808 | 79 | 354 | 0.9 | 0.9 | 0.00 | 0.00 | 0.00 | 65 | 1014.2 |
| 20260510162306 | 79 | 351 | 0.0 | 0.9 | 0.00 | 0.00 | 0.00 | 69 | 1014.1 |
| 20260510161801 | 80 | 342 | 0.9 | 0.9 | 0.00 | 0.00 | 0.00 | 67 | 1014.2 |
| 20260510161257 | 80 | 321 | 1.7 | 1.7 | 0.00 | 0.00 | 0.00 | 63 | 1014.2 |
| 20260510160754 | 80 | 334 | 1.7 | 2.6 | 0.00 | 0.00 | 0.00 | 71 | 1014.3 |
| 20260510160251 | 78 | 23 | 1.7 | 1.7 | 0.00 | 0.00 | 0.00 | 72 | 1014.1 |
| 20260510155746 | 78 | 16 | 1.7 | 2.6 | 0.00 | 0.00 | 0.00 | 73 | 1014.2 |
| 20260510155242 | 78 | 351 | 0.9 | 0.9 | 0.00 | 0.00 | 0.00 | 73 | 1014.0 |
| 20260510154738 | 77 | 357 | 2.6 | 2.6 | 0.00 | 0.00 | 0.00 | 74 | 1013.9 |
| 20260510154234 | 77 | 20 | 2.6 | 2.6 | 0.00 | 0.00 | 0.00 | 75 | 1014.0 |
| 20260510153729 | 77 | 344 | 3.5 | 3.5 | 0.00 | 0.00 | 0.00 | 75 | 1013.8 |
| 20260510153225 | 77 | 11 | 1.7 | 2.6 | 0.00 | 0.00 | 0.00 | 75 | 1013.9 |
| 20260510152722 | 77 | 355 | 0.0 | 0.9 | 0.00 | 0.00 | 0.00 | 78 | 1013.9 |
| 20260510152218 | 75 | 5 | 1.7 | 1.7 | 0.00 | 0.00 | 0.00 | 78 | 1013.9 |
| 20260510151715 | 76 | 16 | 1.7 | 2.6 | 0.00 | 0.00 | 0.00 | 79 | 1013.8 |
| 20260510151214 | 75 | 328 | 1.7 | 1.7 | 0.00 | 0.00 | 0.00 | 78 | 1014.1 |
| 20260510150709 | 76 | 353 | 2.6 | 2.6 | 0.00 | 0.00 | 0.00 | 79 | 1013.9 |
| 20260510150204 | 75 | 297 | 3.5 | 3.5 | 0.00 | 0.00 | 0.00 | 79 | 1013.7 |
| 20260510145701 | 75 | 331 | 3.5 | 5.2 | 0.00 | 0.00 | 0.00 | 80 | 1013.7 |
| 20260510145157 | 75 | 356 | 1.7 | 1.7 | 0.00 | 0.00 | 0.00 | 81 | 1013.7 |
| 20260510144654 | 76 | 333 | 0.9 | 0.9 | 0.00 | 0.00 | 0.00 | 80 | 1013.8 |
| 20260510144150 | 75 | 346 | 1.7 | 1.7 | 0.00 | 0.00 | 0.00 | 81 | 1013.9 |
| 20260510143645 | 75 | 356 | 0.9 | 0.9 | 0.00 | 0.00 | 0.00 | 82 | 1014.1 |
| 20260510143142 | 74 | 343 | 0.9 | 0.9 | 0.00 | 0.00 | 0.00 | 83 | 1014.0 |
| 20260510142638 | 75 | 40 | 2.6 | 2.6 | 0.00 | 0.00 | 0.00 | 83 | 1014.1 |
| 20260510142135 | 74 | 13 | 0.9 | 0.9 | 0.00 | 0.00 | 0.00 | 85 | 1014.0 |
| 20260510141632 | 73 | 46 | 0.9 | 1.7 | 0.00 | 0.00 | 0.00 | 85 | 1013.8 |
| 20260510141131 | 73 | 124 | 0.9 | 0.9 | 0.00 | 0.00 | 0.00 | 85 | 1013.6 |
| 20260510140626 | 73 | 124 | 0.9 | 1.7 | 0.00 | 0.00 | 0.00 | 85 | 1013.7 |
| 20260510140126 | 73 | 123 | 0.9 | 0.9 | 0.00 | 0.00 | 0.00 | 84 | 1013.6 |
| 20260510135621 | 74 | 124 | 0.0 | 0.9 | 0.00 | 0.00 | 0.00 | 82 | 1013.4 |
| 20260510135118 | 72 | 123 | 0.0 | 0.0 | 0.00 | 0.00 | 0.00 | 86 | 1013.6 |
| 20260510134615 | 70 | 123 | 0.0 | 0.0 | 0.00 | 0.00 | 0.00 | 88 | 1013.5 |
| 20260510134112 | 70 | 123 | 0.0 | 0.9 | 0.00 | 0.00 | 0.00 | 90 | 1013.5 |
| 20260510133608 | 69 | 123 | 0.0 | 0.0 | 0.00 | 0.00 | 0.00 | 91 | 1013.7 |
| 20260510133104 | 69 | 123 | 0.0 | 0.0 | 0.00 | 0.00 | 0.00 | 92 | 1013.5 |
| 20260510132601 | 68 | 123 | 0.0 | 0.0 | 0.00 | 0.00 | 0.00 | 92 | 1013.7 |
| 20260510132057 | 69 | 123 | 0.9 | 1.7 | 0.00 | 0.00 | 0.00 | 91 | 1013.6 |
| 20260510131555 | 68 | 123 | 0.9 | 0.9 | 0.00 | 0.00 | 0.00 | 92 | 1013.6 |
| 20260510131052 | 68 | 123 | 0.0 | 0.9 | 0.00 | 0.00 | 0.00 | 92 | 1013.6 |
| 20260510130548 | 68 | 123 | 0.9 | 0.9 | 0.00 | 0.00 | 0.00 | 92 | 1013.5 |
| 20260510130046 | 68 | 123 | 0.0 | 0.9 | 0.00 | 0.00 | 0.00 | 93 | 1013.7 |
| 20260510125542 | 67 | 122 | 0.0 | 0.0 | 0.00 | 0.00 | 0.00 | 94 | 1013.4 |
| 20260510125039 | 66 | 123 | 0.0 | 0.0 | 0.00 | 0.00 | 0.00 | 94 | 1013.6 |
| 20260510124536 | 66 | 123 | 0.0 | 0.9 | 0.00 | 0.00 | 0.00 | 94 | 1013.2 |
| 20260510124032 | 66 | 123 | 0.0 | 0.9 | 0.00 | 0.00 | 0.00 | 95 | 1013.5 |
| 20260510123527 | 65 | 123 | 0.0 | 0.0 | 0.00 | 0.00 | 0.00 | 95 | 1013.2 |
| 20260510123024 | 65 | 122 | 0.0 | 0.9 | 0.00 | 0.00 | 0.00 | 95 | 1013.0 |
| 20260510122519 | 65 | 123 | 0.0 | 0.0 | 0.00 | 0.00 | 0.00 | 95 | 1013.1 |
| 20260510122016 | 64 | 123 | 0.0 | 0.0 | 0.00 | 0.00 | 0.00 | 96 | 1013.1 |
| 20260510121513 | 63 | 123 | 0.0 | 0.0 | 0.00 | 0.00 | 0.00 | 96 | 1012.8 |
| 20260510121010 | 63 | 123 | 0.0 | 0.0 | 0.00 | 0.00 | 0.00 | 96 | 1012.8 |
| 20260510120508 | 61 | 123 | 0.0 | 0.0 | 0.00 | 0.00 | 0.00 | 97 | 1013.0 |
| 20260510120004 | 60 | 123 | 0.0 | 0.0 | 0.00 | 0.00 | 0.00 | 97 | 1013.0 |
| 20260510115501 | 60 | 123 | 1.7 | 1.7 | 0.00 | 0.00 | 0.00 | 97 | 1012.9 |
| 20260510114956 | 60 | 123 | 0.0 | 0.0 | 0.00 | 0.00 | 0.00 | 98 | 1012.8 |
| 20260510114453 | 59 | 123 | 0.0 | 0.0 | 0.00 | 0.00 | 0.00 | 98 | 1012.9 |
| 20260510113949 | 59 | 123 | 0.0 | 0.0 | 0.00 | 0.00 | 0.00 | 98 | 1012.7 |
| 20260510113444 | 59 | 123 | 0.0 | 0.0 | 0.00 | 0.00 | 0.00 | 99 | 1012.7 |
| 20260510112942 | 59 | 123 | 0.0 | 0.0 | 0.00 | 0.00 | 0.00 | 99 | 1012.6 |
| 20260510112439 | 59 | 123 | 0.0 | 0.0 | 0.00 | 0.00 | 0.00 | 99 | 1012.6 |
| 20260510111935 | 59 | 124 | 1.7 | 1.7 | 0.00 | 0.00 | 0.00 | 99 | 1012.3 |
| 20260510111431 | 58 | 124 | 1.7 | 1.7 | 0.00 | 0.00 | 0.00 | 99 | 1012.3 |
| 20260510110927 | 59 | 124 | 2.6 | 2.6 | 0.00 | 0.00 | 0.00 | 99 | 1012.4 |
| 20260510110424 | 58 | 124 | 1.7 | 1.7 | 0.00 | 0.00 | 0.00 | 99 | 1012.1 |
| 20260510105920 | 59 | 124 | 1.7 | 1.7 | 0.00 | 0.00 | 0.00 | 99 | 1011.8 |
| 20260510105415 | 58 | 124 | 1.7 | 1.7 | 0.00 | 0.00 | 0.00 | 99 | 1011.8 |
| 20260510104911 | 57 | 124 | 1.7 | 1.7 | 0.00 | 0.00 | 0.00 | 99 | 1011.6 |
| 20260510104408 | 56 | 124 | 1.7 | 1.7 | 0.00 | 0.00 | 0.00 | 99 | 1011.7 |
| 20260510103904 | 55 | 124 | 0.9 | 0.9 | 0.00 | 0.00 | 0.00 | 99 | 1011.4 |
| 20260510103402 | 56 | 124 | 0.9 | 0.9 | 0.00 | 0.00 | 0.00 | 99 | 1011.7 |
| 20260510102856 | 56 | 124 | 1.7 | 1.7 | 0.00 | 0.00 | 0.00 | 99 | 1011.6 |
| 20260510102352 | 56 | 124 | 0.9 | 0.9 | 0.00 | 0.00 | 0.00 | 99 | 1011.6 |
| 20260510101850 | 56 | 124 | 0.0 | 0.9 | 0.00 | 0.00 | 0.00 | 99 | 1011.6 |
| 20260510101348 | 56 | 124 | 0.9 | 0.9 | 0.00 | 0.00 | 0.00 | 99 | 1011.6 |
| 20260510100845 | 56 | 124 | 0.9 | 0.9 | 0.00 | 0.00 | 0.00 | 99 | 1011.4 |
| 20260510100342 | 56 | 124 | 0.9 | 0.9 | 0.00 | 0.00 | 0.00 | 99 | 1011.4 |
| 20260510095838 | 56 | 124 | 0.9 | 1.7 | 0.00 | 0.00 | 0.00 | 99 | 1011.3 |
| 20260510095332 | 56 | 124 | 0.0 | 0.0 | 0.00 | 0.00 | 0.00 | 99 | 1011.3 |
| 20260510094827 | 56 | 124 | 0.0 | 0.0 | 0.00 | 0.00 | 0.00 | 98 | 1011.2 |
| 20260510094322 | 56 | 124 | 0.0 | 0.0 | 0.00 | 0.00 | 0.00 | 98 | 1011.3 |
| 20260510093819 | 57 | 124 | 0.0 | 0.0 | 0.00 | 0.00 | 0.00 | 98 | 1011.2 |
| 20260510093314 | 57 | 124 | 0.0 | 0.0 | 0.00 | 0.00 | 0.00 | 97 | 1011.0 |
| 20260510092806 | 57 | 124 | 0.0 | 0.0 | 0.00 | 0.00 | 0.00 | 97 | 1011.2 |
| 20260510092301 | 57 | 124 | 0.0 | 0.9 | 0.00 | 0.00 | 0.00 | 97 | 1011.0 |
| 20260510091757 | 57 | 124 | 0.0 | 0.0 | 0.00 | 0.00 | 0.00 | 96 | 1011.0 |
| 20260510091255 | 57 | 124 | 0.0 | 0.0 | 0.00 | 0.00 | 0.00 | 96 | 1010.9 |
| 20260510090751 | 58 | 124 | 0.0 | 0.9 | 0.00 | 0.00 | 0.00 | 95 | 1010.8 |
| 20260510090248 | 58 | 124 | 2.6 | 2.6 | 0.00 | 0.00 | 0.00 | 95 | 1010.6 |
| 20260510085744 | 57 | 124 | 2.6 | 2.6 | 0.00 | 0.00 | 0.00 | 97 | 1010.8 |
| 20260510085238 | 57 | 124 | 1.7 | 2.6 | 0.00 | 0.00 | 0.00 | 96 | 1010.8 |
| 20260510084734 | 57 | 124 | 3.5 | 5.2 | 0.00 | 0.00 | 0.00 | 97 | 1010.9 |
| 20260510084231 | 56 | 107 | 0.9 | 0.9 | 0.00 | 0.00 | 0.00 | 98 | 1010.8 |
| 20260510083727 | 56 | 107 | 0.9 | 0.9 | 0.00 | 0.00 | 0.00 | 98 | 1011.0 |
| 20260510083224 | 56 | 107 | 0.9 | 0.9 | 0.00 | 0.00 | 0.00 | 98 | 1010.9 |
| 20260510082720 | 56 | 107 | 0.0 | 0.0 | 0.00 | 0.00 | 0.00 | 98 | 1010.9 |
| 20260510082217 | 56 | 107 | 0.0 | 0.9 | 0.00 | 0.00 | 0.00 | 99 | 1010.7 |
| 20260510081710 | 56 | 107 | 0.9 | 0.9 | 0.00 | 0.00 | 0.00 | 99 | 1010.6 |
| 20260510081207 | 56 | 107 | 0.9 | 0.9 | 0.00 | 0.00 | 0.00 | 99 | 1010.5 |
| 20260510080707 | 56 | 107 | 0.9 | 0.9 | 0.00 | 0.00 | 0.00 | 99 | 1010.5 |
| 20260510080203 | 56 | 107 | 0.9 | 0.9 | 0.00 | 0.00 | 0.00 | 99 | 1010.7 |
| 20260510075700 | 56 | 107 | 0.9 | 0.9 | 0.00 | 0.00 | 0.00 | 99 | 1010.7 |
| 20260510075158 | 56 | 107 | 0.9 | 0.9 | 0.00 | 0.00 | 0.00 | 99 | 1010.8 |
| 20260510074655 | 56 | 107 | 0.0 | 0.0 | 0.00 | 0.00 | 0.00 | 99 | 1010.7 |
| 20260510074151 | 56 | 107 | 0.0 | 0.0 | 0.00 | 0.00 | 0.00 | 99 | 1010.5 |
| 20260510073648 | 56 | 107 | 0.0 | 0.0 | 0.00 | 0.00 | 0.00 | 99 | 1010.4 |
| 20260510073144 | 56 | 107 | 0.0 | 0.0 | 0.00 | 0.00 | 0.00 | 98 | 1010.7 |
| 20260510072639 | 56 | 107 | 0.0 | 0.0 | 0.00 | 0.00 | 0.00 | 98 | 1010.6 |
| 20260510072136 | 57 | 107 | 0.0 | 0.0 | 0.00 | 0.00 | 0.00 | 97 | 1010.6 |
| 20260510071632 | 57 | 107 | 0.0 | 0.0 | 0.00 | 0.00 | 0.00 | 97 | 1010.8 |
| 20260510071130 | 57 | 107 | 0.0 | 0.0 | 0.00 | 0.00 | 0.00 | 97 | 1010.7 |
| 20260510070627 | 57 | 107 | 0.0 | 0.0 | 0.00 | 0.00 | 0.00 | 97 | 1010.4 |
| 20260510070125 | 57 | 107 | 0.0 | 0.0 | 0.00 | 0.00 | 0.00 | 97 | 1010.8 |
| 20260510065620 | 57 | 107 | 0.0 | 0.0 | 0.00 | 0.00 | 0.00 | 97 | 1010.8 |
| 20260510065117 | 57 | 107 | 0.9 | 0.9 | 0.00 | 0.00 | 0.00 | 96 | 1010.8 |
| 20260510064613 | 57 | 107 | 0.9 | 0.9 | 0.00 | 0.00 | 0.00 | 96 | 1010.6 |
| 20260510064110 | 57 | 107 | 0.0 | 0.0 | 0.00 | 0.00 | 0.00 | 96 | 1010.5 |
| 20260510063606 | 58 | 107 | 0.0 | 0.0 | 0.00 | 0.00 | 0.00 | 96 | 1010.5 |
| 20260510063103 | 58 | 107 | 0.0 | 0.0 | 0.00 | 0.00 | 0.00 | 96 | 1010.3 |
| 20260510062554 | 58 | 107 | 0.0 | 0.0 | 0.00 | 0.00 | 0.00 | 95 | 1010.3 |
| 20260510062049 | 58 | 107 | 0.0 | 0.0 | 0.00 | 0.00 | 0.00 | 95 | 1010.3 |
| 20260510061546 | 58 | 107 | 0.0 | 0.0 | 0.00 | 0.00 | 0.00 | 95 | 1010.1 |
| 20260510061043 | 58 | 107 | 0.0 | 0.0 | 0.00 | 0.00 | 0.00 | 94 | 1010.1 |
| 20260510060539 | 58 | 107 | 0.0 | 0.0 | 0.00 | 0.00 | 0.00 | 94 | 1010.2 |
| 20260510060035 | 58 | 107 | 0.0 | 0.0 | 0.00 | 0.00 | 0.00 | 94 | 1010.0 |
| 20260510055531 | 58 | 107 | 0.0 | 0.0 | 0.00 | 0.00 | 0.00 | 94 | 1010.0 |
| 20260510055030 | 58 | 107 | 0.0 | 0.0 | 0.00 | 0.00 | 0.00 | 95 | 1009.9 |
| 20260510054525 | 58 | 107 | 0.0 | 0.0 | 0.00 | 0.00 | 0.00 | 95 | 1009.9 |
| 20260510054020 | 58 | 107 | 0.0 | 0.0 | 0.00 | 0.00 | 0.00 | 95 | 1010.0 |
| 20260510053516 | 58 | 107 | 0.0 | 0.9 | 0.00 | 0.00 | 0.00 | 96 | 1010.2 |
| 20260510053013 | 58 | 107 | 0.9 | 0.9 | 0.00 | 0.00 | 0.00 | 97 | 1010.0 |
| 20260510052509 | 58 | 107 | 1.7 | 1.7 | 0.00 | 0.00 | 0.00 | 97 | 1010.2 |
| 20260510052005 | 58 | 107 | 0.9 | 1.7 | 0.00 | 0.00 | 0.00 | 97 | 1010.3 |
| 20260510051500 | 58 | 107 | 3.5 | 3.5 | 0.00 | 0.00 | 0.00 | 97 | 1010.5 |
| 20260510050957 | 58 | 85 | 0.9 | 0.9 | 0.00 | 0.00 | 0.00 | 97 | 1010.1 |
| 20260510050454 | 58 | 85 | 0.9 | 0.9 | 0.00 | 0.00 | 0.00 | 97 | 1010.2 |
| 20260510045951 | 59 | 85 | 0.0 | 0.0 | 0.00 | 0.00 | 0.00 | 96 | 1010.0 |
| 20260510045449 | 58 | 85 | 0.9 | 0.9 | 0.00 | 0.00 | 0.00 | 96 | 1010.2 |
| 20260510044945 | 58 | 85 | 0.9 | 0.9 | 0.00 | 0.00 | 0.00 | 96 | 1010.0 |
| 20260510044442 | 58 | 85 | 0.0 | 0.0 | 0.00 | 0.00 | 0.00 | 96 | 1010.0 |
| 20260510043939 | 59 | 85 | 0.0 | 0.0 | 0.00 | 0.00 | 0.00 | 95 | 1010.0 |
| 20260510043434 | 59 | 85 | 0.0 | 0.0 | 0.00 | 0.00 | 0.00 | 95 | 1010.0 |
| 20260510042933 | 59 | 85 | 1.7 | 1.7 | 0.00 | 0.00 | 0.00 | 95 | 1010.0 |
| 20260510042429 | 59 | 85 | 0.9 | 0.9 | 0.00 | 0.00 | 0.00 | 95 | 1010.0 |
| 20260510041924 | 59 | 85 | 1.7 | 1.7 | 0.00 | 0.00 | 0.00 | 94 | 1009.9 |
| 20260510041422 | 59 | 85 | 0.9 | 0.9 | 0.00 | 0.00 | 0.00 | 94 | 1009.9 |
| 20260510040919 | 59 | 85 | 0.9 | 0.9 | 0.00 | 0.00 | 0.00 | 93 | 1010.0 |
| 20260510040416 | 60 | 85 | 0.0 | 0.0 | 0.00 | 0.00 | 0.00 | 92 | 1010.3 |
| 20260510035911 | 60 | 85 | 0.0 | 0.9 | 0.00 | 0.00 | 0.00 | 91 | 1010.1 |
| 20260510035408 | 60 | 85 | 0.9 | 0.9 | 0.00 | 0.00 | 0.00 | 91 | 1010.1 |
| 20260510034903 | 60 | 85 | 0.9 | 0.9 | 0.00 | 0.00 | 0.00 | 91 | 1010.3 |
| 20260510034402 | 60 | 85 | 0.9 | 0.9 | 0.00 | 0.00 | 0.00 | 91 | 1010.1 |
| 20260510033857 | 60 | 85 | 0.0 | 0.0 | 0.00 | 0.00 | 0.00 | 89 | 1010.1 |
| 20260510033354 | 60 | 86 | 2.6 | 2.6 | 0.00 | 0.00 | 0.00 | 88 | 1010.1 |
| 20260510032850 | 59 | 84 | 0.0 | 0.0 | 0.00 | 0.00 | 0.00 | 86 | 1010.1 |
| 20260510032347 | 60 | 84 | 0.0 | 0.0 | 0.00 | 0.00 | 0.00 | 85 | 1010.1 |
| 20260510031843 | 60 | 84 | 0.0 | 0.0 | 0.00 | 0.00 | 0.00 | 85 | 1010.2 |
| 20260510031339 | 61 | 84 | 0.0 | 0.0 | 0.00 | 0.00 | 0.00 | 85 | 1010.3 |
| 20260510030838 | 62 | 84 | 0.0 | 0.0 | 0.00 | 0.00 | 0.00 | 85 | 1010.3 |
| 20260510030335 | 61 | 84 | 0.0 | 0.0 | 0.00 | 0.00 | 0.00 | 82 | 1010.3 |
| 20260510025833 | 62 | 84 | 0.0 | 0.0 | 0.00 | 0.00 | 0.00 | 81 | 1010.2 |
| 20260510025330 | 62 | 84 | 0.0 | 0.0 | 0.00 | 0.00 | 0.00 | 80 | 1010.1 |
| 20260510024826 | 62 | 84 | 0.0 | 0.0 | 0.00 | 0.00 | 0.00 | 83 | 1010.2 |
| 20260510024324 | 62 | 84 | 0.0 | 0.0 | 0.00 | 0.00 | 0.00 | 81 | 1010.2 |
| 20260510023820 | 63 | 84 | 0.0 | 0.0 | 0.00 | 0.00 | 0.00 | 78 | 1010.1 |
| 20260510023316 | 63 | 84 | 0.0 | 0.0 | 0.00 | 0.00 | 0.00 | 72 | 1009.9 |
| 20260510022813 | 64 | 84 | 0.0 | 0.9 | 0.00 | 0.00 | 0.00 | 70 | 1010.1 |
| 20260510022312 | 64 | 84 | 0.0 | 0.0 | 0.00 | 0.00 | 0.00 | 72 | 1009.8 |
| 20260510021811 | 64 | 84 | 0.0 | 0.0 | 0.00 | 0.00 | 0.00 | 73 | 1009.9 |
| 20260510021310 | 64 | 84 | 0.0 | 0.0 | 0.00 | 0.00 | 0.00 | 73 | 1009.7 |
| 20260510020805 | 64 | 84 | 0.0 | 0.0 | 0.00 | 0.00 | 0.00 | 72 | 1009.7 |
| 20260510020300 | 65 | 84 | 0.0 | 0.0 | 0.00 | 0.00 | 0.00 | 71 | 1009.8 |
| 20260510015756 | 65 | 84 | 0.0 | 0.0 | 0.00 | 0.00 | 0.00 | 72 | 1009.5 |
| 20260510015252 | 66 | 84 | 0.0 | 0.0 | 0.00 | 0.00 | 0.00 | 71 | 1009.3 |
| 20260510014747 | 66 | 84 | 0.0 | 0.0 | 0.00 | 0.00 | 0.00 | 69 | 1009.3 |
| 20260510014245 | 66 | 84 | 0.0 | 0.0 | 0.00 | 0.00 | 0.00 | 68 | 1009.1 |
| 20260510013741 | 66 | 84 | 0.0 | 0.0 | 0.00 | 0.00 | 0.00 | 70 | 1009.1 |
| 20260510013237 | 67 | 84 | 0.0 | 0.0 | 0.00 | 0.00 | 0.00 | 69 | 1009.1 |
| 20260510012736 | 68 | 84 | 0.0 | 0.0 | 0.00 | 0.00 | 0.00 | 67 | 1009.1 |
| 20260510012232 | 68 | 84 | 0.0 | 0.0 | 0.00 | 0.00 | 0.00 | 68 | 1009.1 |
| 20260510011727 | 69 | 84 | 0.0 | 0.0 | 0.00 | 0.00 | 0.00 | 66 | 1008.9 |
| 20260510011222 | 69 | 84 | 0.0 | 0.0 | 0.00 | 0.00 | 0.00 | 64 | 1009.0 |
| 20260510010719 | 69 | 84 | 0.0 | 0.0 | 0.00 | 0.00 | 0.00 | 64 | 1009.0 |
| 20260510010215 | 70 | 84 | 0.0 | 0.0 | 0.00 | 0.00 | 0.00 | 65 | 1008.7 |
| 20260510005712 | 70 | 84 | 0.0 | 0.0 | 0.00 | 0.00 | 0.00 | 62 | 1008.5 |
| 20260510005208 | 71 | 84 | 0.0 | 0.0 | 0.00 | 0.00 | 0.00 | 59 | 1008.8 |
| 20260510004707 | 72 | 84 | 0.0 | 0.0 | 0.00 | 0.00 | 0.00 | 57 | 1008.6 |
| 20260510004204 | 72 | 84 | 0.0 | 0.0 | 0.00 | 0.00 | 0.00 | 58 | 1008.4 |
| 20260510003702 | 74 | 84 | 0.0 | 0.0 | 0.00 | 0.00 | 0.00 | 51 | 1008.6 |
| 20260510003157 | 75 | 84 | 0.0 | 0.0 | 0.00 | 0.00 | 0.00 | 50 | 1008.5 |
| 20260510002651 | 75 | 84 | 0.0 | 0.0 | 0.00 | 0.00 | 0.00 | 47 | 1008.2 |
| 20260510002148 | 77 | 85 | 0.0 | 0.0 | 0.00 | 0.00 | 0.00 | 48 | 1008.4 |
| 20260510001645 | 77 | 85 | 0.0 | 0.9 | 0.00 | 0.00 | 0.00 | 45 | 1008.2 |
| 20260510001144 | 78 | 85 | 0.0 | 0.9 | 0.00 | 0.00 | 0.00 | 43 | 1008.2 |
| 20260510000639 | 78 | 86 | 0.9 | 0.9 | 0.00 | 0.00 | 0.00 | 42 | 1007.9 |
| 20260510000137 | 79 | 85 | 0.9 | 1.7 | 0.00 | 0.00 | 0.00 | 39 | 1008.1 |
| 20260509235632 | 79 | 85 | 0.9 | 0.9 | 0.00 | 0.00 | 0.00 | 38 | 1008.1 |
| 20260509235130 | 80 | 85 | 0.9 | 0.9 | 0.00 | 0.00 | 0.00 | 44 | 1007.9 |
| 20260509234626 | 80 | 85 | 0.0 | 0.9 | 0.00 | 0.00 | 0.00 | 36 | 1007.7 |
| 20260509234124 | 80 | 85 | 0.9 | 0.9 | 0.00 | 0.00 | 0.00 | 37 | 1007.8 |
| 20260509233621 | 80 | 85 | 0.9 | 0.9 | 0.00 | 0.00 | 0.00 | 37 | 1007.9 |
| 20260509233118 | 80 | 84 | 1.7 | 1.7 | 0.00 | 0.00 | 0.00 | 38 | 1007.7 |
| 20260509232614 | 80 | 79 | 0.9 | 0.9 | 0.00 | 0.00 | 0.00 | 37 | 1007.8 |
| 20260509232111 | 80 | 77 | 1.7 | 1.7 | 0.00 | 0.00 | 0.00 | 37 | 1007.9 |
| 20260509231608 | 81 | 71 | 0.0 | 0.0 | 0.00 | 0.00 | 0.00 | 38 | 1007.8 |
| 20260509231106 | 80 | 72 | 0.9 | 0.9 | 0.00 | 0.00 | 0.00 | 36 | 1007.9 |
| 20260509230602 | 80 | 73 | 1.7 | 2.6 | 0.00 | 0.00 | 0.00 | 36 | 1007.6 |
| 20260509230100 | 80 | 25 | 1.7 | 1.7 | 0.00 | 0.00 | 0.00 | 36 | 1007.7 |
| 20260509225555 | 81 | 21 | 0.9 | 1.7 | 0.00 | 0.00 | 0.00 | 36 | 1007.7 |
| 20260509225050 | 81 | 48 | 0.0 | 0.9 | 0.00 | 0.00 | 0.00 | 35 | 1007.4 |
| 20260509224546 | 81 | 59 | 1.7 | 1.7 | 0.00 | 0.00 | 0.00 | 36 | 1007.6 |
| 20260509224043 | 80 | 59 | 0.9 | 0.9 | 0.00 | 0.00 | 0.00 | 35 | 1007.4 |
| 20260509223540 | 81 | 83 | 2.6 | 2.6 | 0.00 | 0.00 | 0.00 | 34 | 1007.5 |
| 20260509223038 | 80 | 28 | 1.7 | 1.7 | 0.00 | 0.00 | 0.00 | 36 | 1007.5 |
| 20260509222534 | 80 | 42 | 0.9 | 0.9 | 0.00 | 0.00 | 0.00 | 34 | 1007.6 |
| 20260509222035 | 81 | 26 | 3.5 | 5.2 | 0.00 | 0.00 | 0.00 | 35 | 1007.8 |
| 20260509221526 | 81 | 33 | 1.7 | 1.7 | 0.00 | 0.00 | 0.00 | 35 | 1007.9 |
| 20260509221022 | 81 | 63 | 0.0 | 0.9 | 0.00 | 0.00 | 0.00 | 35 | 1007.6 |
| 20260509220518 | 81 | 82 | 2.6 | 2.6 | 0.00 | 0.00 | 0.00 | 33 | 1007.7 |
| 20260509220014 | 80 | 28 | 0.0 | 0.0 | 0.00 | 0.00 | 0.00 | 34 | 1007.7 |
| 20260509215509 | 80 | 49 | 3.5 | 5.2 | 0.00 | 0.00 | 0.00 | 36 | 1007.9 |
| 20260509215007 | 81 | 356 | 2.6 | 3.5 | 0.00 | 0.00 | 0.00 | 35 | 1008.0 |
| 20260509214504 | 81 | 304 | 1.7 | 1.7 | 0.00 | 0.00 | 0.00 | 34 | 1008.0 |
| 20260509214001 | 80 | 333 | 3.5 | 5.2 | 0.00 | 0.00 | 0.00 | 36 | 1007.9 |
| 20260509213457 | 81 | 340 | 2.6 | 2.6 | 0.00 | 0.00 | 0.00 | 39 | 1007.8 |
| 20260509212954 | 81 | 60 | 3.5 | 3.5 | 0.00 | 0.00 | 0.00 | 35 | 1008.0 |
| 20260509212451 | 81 | 10 | 1.7 | 2.6 | 0.00 | 0.00 | 0.00 | 37 | 1008.0 |
| 20260509211947 | 80 | 350 | 2.6 | 2.6 | 0.00 | 0.00 | 0.00 | 37 | 1007.8 |
| 20260509211442 | 81 | 22 | 1.7 | 2.6 | 0.00 | 0.00 | 0.00 | 38 | 1007.7 |
| 20260509210940 | 81 | 8 | 2.6 | 3.5 | 0.00 | 0.00 | 0.00 | 36 | 1007.9 |
| 20260509210437 | 80 | 130 | 1.7 | 2.6 | 0.00 | 0.00 | 0.00 | 35 | 1008.1 |
| 20260509205932 | 81 | 11 | 2.6 | 2.6 | 0.00 | 0.00 | 0.00 | 34 | 1008.0 |
| 20260509205428 | 82 | 39 | 0.0 | 0.9 | 0.00 | 0.00 | 0.00 | 37 | 1007.9 |
| 20260509204924 | 82 | 13 | 0.9 | 0.9 | 0.00 | 0.00 | 0.00 | 38 | 1008.0 |
| 20260509204420 | 82 | 266 | 0.0 | 0.9 | 0.00 | 0.00 | 0.00 | 34 | 1007.9 |
| 20260509203916 | 80 | 46 | 0.0 | 0.9 | 0.00 | 0.00 | 0.00 | 34 | 1007.9 |
| 20260509203412 | 81 | 43 | 3.5 | 3.5 | 0.00 | 0.00 | 0.00 | 37 | 1007.9 |
| 20260509202910 | 81 | 43 | 0.0 | 0.9 | 0.00 | 0.00 | 0.00 | 37 | 1008.2 |
| 20260509202405 | 80 | 48 | 0.0 | 0.9 | 0.00 | 0.00 | 0.00 | 36 | 1008.0 |
| 20260509201900 | 80 | 352 | 3.5 | 3.5 | 0.00 | 0.00 | 0.00 | 36 | 1007.7 |
| 20260509201356 | 82 | 23 | 5.2 | 7.0 | 0.00 | 0.00 | 0.00 | 35 | 1007.9 |
| 20260509200853 | 80 | 41 | 0.0 | 0.0 | 0.00 | 0.00 | 0.00 | 36 | 1008.0 |
| 20260509200348 | 80 | 16 | 2.6 | 3.5 | 0.00 | 0.00 | 0.00 | 37 | 1008.1 |
| 20260509195845 | 81 | 359 | 3.5 | 3.5 | 0.00 | 0.00 | 0.00 | 39 | 1008.1 |
| 20260509195340 | 80 | 330 | 0.9 | 0.9 | 0.00 | 0.00 | 0.00 | 42 | 1008.3 |
| 20260509194840 | 80 | 352 | 0.9 | 1.7 | 0.00 | 0.00 | 0.00 | 41 | 1008.3 |
| 20260509194336 | 80 | 33 | 1.7 | 2.6 | 0.00 | 0.00 | 0.00 | 42 | 1008.2 |
| 20260509193832 | 80 | 315 | 1.7 | 1.7 | 0.00 | 0.00 | 0.00 | 45 | 1008.1 |
| 20260509193327 | 79 | 43 | 1.7 | 2.6 | 0.00 | 0.00 | 0.00 | 44 | 1008.2 |
| 20260509192823 | 79 | 341 | 2.6 | 3.5 | 0.00 | 0.00 | 0.00 | 47 | 1008.3 |
| 20260509192320 | 79 | 85 | 1.7 | 2.6 | 0.00 | 0.00 | 0.00 | 45 | 1008.1 |
| 20260509191815 | 79 | 333 | 0.9 | 0.9 | 0.00 | 0.00 | 0.00 | 41 | 1008.4 |
| 20260509191311 | 80 | 75 | 0.9 | 0.9 | 0.00 | 0.00 | 0.00 | 46 | 1008.3 |
| 20260509190806 | 79 | 218 | 1.7 | 1.7 | 0.00 | 0.00 | 0.00 | 47 | 1008.2 |
| 20260509190304 | 79 | 109 | 2.6 | 3.5 | 0.00 | 0.00 | 0.00 | 47 | 1008.2 |
| 20260509185801 | 78 | 103 | 1.7 | 1.7 | 0.00 | 0.00 | 0.00 | 45 | 1008.4 |
| 20260509185257 | 78 | 44 | 1.7 | 2.6 | 0.00 | 0.00 | 0.00 | 50 | 1008.3 |
| 20260509184755 | 78 | 31 | 1.7 | 2.6 | 0.00 | 0.00 | 0.00 | 51 | 1008.4 |
| 20260509184253 | 78 | 28 | 3.5 | 5.2 | 0.00 | 0.00 | 0.00 | 50 | 1008.6 |
| 20260509183749 | 78 | 38 | 0.9 | 0.9 | 0.00 | 0.00 | 0.00 | 52 | 1008.6 |
| 20260509183244 | 77 | 46 | 0.0 | 0.9 | 0.00 | 0.00 | 0.00 | 51 | 1008.6 |
| 20260509182740 | 78 | 22 | 3.5 | 6.1 | 0.00 | 0.00 | 0.00 | 50 | 1008.7 |
| 20260509182238 | 77 | 33 | 2.6 | 3.5 | 0.00 | 0.00 | 0.00 | 49 | 1008.5 |
| 20260509181735 | 78 | 13 | 2.6 | 2.6 | 0.00 | 0.00 | 0.00 | 51 | 1008.9 |
| 20260509181232 | 78 | 63 | 0.9 | 0.9 | 0.00 | 0.00 | 0.00 | 49 | 1008.8 |
| 20260509180729 | 77 | 298 | 1.7 | 2.6 | 0.00 | 0.00 | 0.00 | 48 | 1008.8 |
| 20260509180225 | 77 | 342 | 4.3 | 5.2 | 0.00 | 0.00 | 0.00 | 52 | 1008.8 |
| 20260509175722 | 77 | 55 | 0.9 | 0.9 | 0.00 | 0.00 | 0.00 | 52 | 1008.7 |
| 20260509175218 | 77 | 7 | 0.9 | 1.7 | 0.00 | 0.00 | 0.00 | 52 | 1008.9 |
| 20260509174714 | 77 | 4 | 1.7 | 2.6 | 0.00 | 0.00 | 0.00 | 50 | 1008.8 |
| 20260509174209 | 76 | 27 | 0.9 | 0.9 | 0.00 | 0.00 | 0.00 | 54 | 1008.7 |
| 20260509173706 | 76 | 83 | 3.5 | 3.5 | 0.00 | 0.00 | 0.00 | 54 | 1008.9 |
| 20260509173201 | 76 | 44 | 0.0 | 0.9 | 0.00 | 0.00 | 0.00 | 58 | 1008.7 |
| 20260509172658 | 76 | 31 | 0.9 | 1.7 | 0.00 | 0.00 | 0.00 | 60 | 1008.8 |
| 20260509172154 | 76 | 2 | 0.9 | 0.9 | 0.00 | 0.00 | 0.00 | 60 | 1008.8 |
| 20260509171649 | 76 | 308 | 2.6 | 2.6 | 0.00 | 0.00 | 0.00 | 57 | 1008.9 |
| 20260509171145 | 76 | 330 | 0.9 | 0.9 | 0.00 | 0.00 | 0.00 | 60 | 1008.9 |
| 20260509170643 | 76 | 353 | 0.0 | 0.9 | 0.00 | 0.00 | 0.00 | 56 | 1008.8 |
| 20260509170133 | 77 | 348 | 1.7 | 2.6 | 0.00 | 0.00 | 0.00 | 56 | 1008.9 |
| 20260509165632 | 76 | 209 | 1.7 | 1.7 | 0.00 | 0.00 | 0.00 | 56 | 1009.1 |
| 20260509165128 | 76 | 332 | 0.0 | 0.9 | 0.00 | 0.00 | 0.00 | 56 | 1009.0 |